| time (UTC) | temp F | wind direction | speed MPH | gust MPH | rain 1hr in | rain 24hr in | rain mn in | humidity % | barometer mb |
| 20260506221530 | 86 | 207 | 7.0 | 12.0 | 0.00 | 0.00 | 0.00 | 71 | 1007.9 |
| 20260506221007 | 86 | 165 | 6.0 | 12.0 | 0.00 | 0.00 | 0.00 | 71 | 1007.8 |
| 20260506220507 | 86 | 228 | 7.0 | 16.0 | 0.00 | 0.00 | 0.00 | 71 | 1008.0 |
| 20260506220009 | 86 | 184 | 7.0 | 16.0 | 0.00 | 0.00 | 0.00 | 71 | 1008.0 |
| 20260506215510 | 86 | 200 | 6.0 | 15.0 | 0.00 | 0.00 | 0.00 | 70 | 1008.0 |
| 20260506215016 | 86 | 229 | 8.0 | 15.0 | 0.00 | 0.00 | 0.00 | 70 | 1008.1 |
| 20260506214516 | 86 | 173 | 8.0 | 13.0 | 0.00 | 0.00 | 0.00 | 69 | 1008.1 |
| 20260506214016 | 87 | 174 | 6.0 | 13.0 | 0.00 | 0.00 | 0.00 | 68 | 1008.0 |
| 20260506213519 | 87 | 237 | 6.0 | 12.0 | 0.00 | 0.00 | 0.00 | 67 | 1008.1 |
| 20260506213017 | 87 | 161 | 5.0 | 14.0 | 0.00 | 0.00 | 0.00 | 68 | 1008.1 |
| 20260506212515 | 88 | 154 | 6.0 | 14.0 | 0.00 | 0.00 | 0.00 | 67 | 1008.1 |
| 20260506212018 | 88 | 275 | 7.0 | 14.0 | 0.00 | 0.00 | 0.00 | 66 | 1008.2 |
| 20260506211521 | 88 | 238 | 4.0 | 10.0 | 0.00 | 0.00 | 0.00 | 68 | 1008.2 |
| 20260506211006 | 88 | 192 | 4.0 | 11.0 | 0.00 | 0.00 | 0.00 | 68 | 1008.2 |
| 20260506210512 | 87 | 180 | 5.0 | 11.0 | 0.00 | 0.00 | 0.00 | 68 | 1008.2 |
| 20260506210012 | 87 | 192 | 4.0 | 15.0 | 0.00 | 0.00 | 0.00 | 68 | 1008.3 |
| 20260506205508 | 87 | 80 | 5.0 | 15.0 | 0.00 | 0.00 | 0.00 | 68 | 1008.4 |
| 20260506205014 | 88 | 176 | 7.0 | 12.0 | 0.00 | 0.00 | 0.00 | 68 | 1008.4 |
| 20260506204512 | 87 | 225 | 6.0 | 10.0 | 0.00 | 0.00 | 0.00 | 69 | 1008.5 |
| 20260506204019 | 87 | 243 | 3.0 | 10.0 | 0.00 | 0.00 | 0.00 | 69 | 1008.5 |
| 20260506203518 | 87 | 230 | 4.0 | 11.0 | 0.00 | 0.00 | 0.00 | 69 | 1008.5 |
| 20260506203021 | 87 | 263 | 4.0 | 13.0 | 0.00 | 0.00 | 0.00 | 69 | 1008.6 |
| 20260506202523 | 88 | 200 | 6.0 | 11.0 | 0.00 | 0.00 | 0.00 | 69 | 1008.7 |
| 20260506202023 | 88 | 261 | 5.0 | 11.0 | 0.00 | 0.00 | 0.00 | 69 | 1008.7 |
| 20260506201525 | 87 | 215 | 5.0 | 11.0 | 0.00 | 0.00 | 0.00 | 69 | 1008.7 |
| 20260506201011 | 87 | 244 | 4.0 | 11.0 | 0.00 | 0.00 | 0.00 | 69 | 1008.7 |
| 20260506200510 | 87 | 247 | 5.0 | 11.0 | 0.00 | 0.00 | 0.00 | 68 | 1008.7 |
| 20260506200015 | 87 | 202 | 5.0 | 10.0 | 0.00 | 0.00 | 0.00 | 68 | 1008.8 |
| 20260506195515 | 87 | 217 | 4.0 | 11.0 | 0.00 | 0.00 | 0.00 | 69 | 1008.9 |
| 20260506195016 | 87 | 198 | 5.0 | 13.0 | 0.00 | 0.00 | 0.00 | 69 | 1009.0 |
| 20260506194517 | 87 | 228 | 5.0 | 13.0 | 0.00 | 0.00 | 0.00 | 69 | 1009.0 |
| 20260506194023 | 87 | 239 | 5.0 | 12.0 | 0.00 | 0.00 | 0.00 | 68 | 1008.9 |
| 20260506193525 | 87 | 259 | 5.0 | 12.0 | 0.00 | 0.00 | 0.00 | 67 | 1009.0 |
| 20260506193009 | 87 | 224 | 3.0 | 10.0 | 0.00 | 0.00 | 0.00 | 68 | 1009.0 |
| 20260506192506 | 87 | 252 | 5.0 | 10.0 | 0.00 | 0.00 | 0.00 | 68 | 1009.1 |
| 20260506192010 | 88 | 272 | 5.0 | 11.0 | 0.00 | 0.00 | 0.00 | 68 | 1009.1 |
| 20260506191511 | 88 | 221 | 5.0 | 11.0 | 0.00 | 0.00 | 0.00 | 67 | 1009.1 |
| 20260506191017 | 88 | 190 | 5.0 | 9.0 | 0.00 | 0.00 | 0.00 | 68 | 1009.2 |
| 20260506190517 | 87 | 223 | 6.0 | 9.0 | 0.00 | 0.00 | 0.00 | 67 | 1009.3 |
| 20260506190019 | 88 | 252 | 4.0 | 10.0 | 0.00 | 0.00 | 0.00 | 68 | 1009.4 |
| 20260506185518 | 88 | 194 | 5.0 | 11.0 | 0.00 | 0.00 | 0.00 | 68 | 1009.5 |
| 20260506185048 | 88 | 254 | 5.0 | 11.0 | 0.00 | 0.00 | 0.00 | 68 | 1009.5 |
| 20260506184550 | 88 | 201 | 4.0 | 10.0 | 0.00 | 0.00 | 0.00 | 69 | 1009.7 |
| 20260506183619 | 87 | 253 | 5.0 | 10.0 | 0.00 | 0.00 | 0.00 | 69 | 1009.7 |
| 20260506183008 | 87 | 181 | 6.0 | 9.0 | 0.00 | 0.00 | 0.00 | 68 | 1009.7 |
| 20260506182528 | 87 | 217 | 4.0 | 9.0 | 0.00 | 0.00 | 0.00 | 69 | 1009.7 |
| 20260506182054 | 87 | 246 | 4.0 | 11.0 | 0.00 | 0.00 | 0.00 | 70 | 1009.8 |
| 20260506181615 | 87 | 255 | 5.0 | 11.0 | 0.00 | 0.00 | 0.00 | 70 | 1009.8 |
| 20260506181016 | 87 | 232 | 6.0 | 9.0 | 0.00 | 0.00 | 0.00 | 70 | 1009.9 |
| 20260506180536 | 86 | 280 | 4.0 | 10.0 | 0.00 | 0.00 | 0.00 | 71 | 1009.9 |
| 20260506180055 | 86 | 232 | 4.0 | 10.0 | 0.00 | 0.00 | 0.00 | 72 | 1009.9 |
| 20260506175618 | 86 | 227 | 4.0 | 12.0 | 0.00 | 0.00 | 0.00 | 72 | 1010.0 |
| 20260506175016 | 85 | 223 | 4.0 | 10.0 | 0.00 | 0.00 | 0.00 | 73 | 1010.0 |
| 20260506174538 | 85 | 180 | 5.0 | 10.0 | 0.00 | 0.00 | 0.00 | 73 | 1010.0 |
| 20260506174102 | 85 | 264 | 5.0 | 12.0 | 0.00 | 0.00 | 0.00 | 73 | 1010.1 |
| 20260506173622 | 85 | 183 | 6.0 | 12.0 | 0.00 | 0.00 | 0.00 | 73 | 1010.2 |
| 20260506173012 | 85 | 209 | 5.0 | 11.0 | 0.00 | 0.00 | 0.00 | 72 | 1010.2 |
| 20260506172532 | 85 | 232 | 5.0 | 9.0 | 0.00 | 0.00 | 0.00 | 72 | 1010.2 |
| 20260506172104 | 85 | 197 | 6.0 | 11.0 | 0.00 | 0.00 | 0.00 | 72 | 1010.2 |
| 20260506171620 | 85 | 234 | 6.0 | 13.0 | 0.00 | 0.00 | 0.00 | 72 | 1010.2 |
| 20260506171134 | 85 | 277 | 5.0 | 12.0 | 0.00 | 0.00 | 0.00 | 72 | 1010.2 |
| 20260506170517 | 85 | 200 | 4.0 | 12.0 | 0.00 | 0.00 | 0.00 | 71 | 1010.3 |
| 20260506170047 | 85 | 235 | 6.0 | 9.0 | 0.00 | 0.00 | 0.00 | 71 | 1010.3 |
| 20260506165534 | 85 | 215 | 5.0 | 9.0 | 0.00 | 0.00 | 0.00 | 71 | 1010.2 |
| 20260506165056 | 85 | 165 | 5.0 | 8.0 | 0.00 | 0.00 | 0.00 | 73 | 1010.2 |
| 20260506164627 | 84 | 258 | 3.0 | 9.0 | 0.00 | 0.00 | 0.00 | 73 | 1010.2 |
| 20260506164135 | 84 | 257 | 3.0 | 9.0 | 0.00 | 0.00 | 0.00 | 72 | 1010.2 |
| 20260506163518 | 84 | 276 | 4.0 | 9.0 | 0.00 | 0.00 | 0.00 | 72 | 1010.2 |
| 20260506163112 | 84 | 213 | 5.0 | 9.0 | 0.00 | 0.00 | 0.00 | 71 | 1010.1 |
| 20260506162619 | 84 | 232 | 3.0 | 7.0 | 0.00 | 0.00 | 0.00 | 71 | 1010.1 |
| 20260506162008 | 84 | 266 | 4.0 | 8.0 | 0.00 | 0.00 | 0.00 | 71 | 1010.0 |
| 20260506161523 | 84 | 223 | 3.0 | 7.0 | 0.00 | 0.00 | 0.00 | 71 | 1009.9 |
| 20260506161110 | 84 | 254 | 3.0 | 7.0 | 0.00 | 0.00 | 0.00 | 71 | 1009.9 |
| 20260506160630 | 84 | 254 | 3.0 | 7.0 | 0.00 | 0.00 | 0.00 | 71 | 1009.9 |
| 20260506160056 | 83 | 236 | 2.0 | 7.0 | 0.00 | 0.00 | 0.00 | 71 | 1009.8 |
| 20260506155540 | 83 | 215 | 4.0 | 7.0 | 0.00 | 0.00 | 0.00 | 71 | 1009.8 |
| 20260506155002 | 83 | 279 | 3.0 | 7.0 | 0.00 | 0.00 | 0.00 | 71 | 1009.8 |
| 20260506154520 | 83 | 248 | 2.0 | 5.0 | 0.00 | 0.00 | 0.00 | 72 | 1009.8 |
| 20260506154110 | 83 | 278 | 3.0 | 7.0 | 0.00 | 0.00 | 0.00 | 72 | 1009.7 |
| 20260506153626 | 83 | 276 | 4.0 | 7.0 | 0.00 | 0.00 | 0.00 | 72 | 1009.7 |
| 20260506153032 | 83 | 211 | 2.0 | 5.0 | 0.00 | 0.00 | 0.00 | 73 | 1009.6 |
| 20260506152614 | 82 | 236 | 2.0 | 5.0 | 0.00 | 0.00 | 0.00 | 73 | 1009.6 |
| 20260506152136 | 82 | 254 | 2.0 | 6.0 | 0.00 | 0.00 | 0.00 | 73 | 1009.6 |
| 20260506151518 | 82 | 261 | 2.0 | 6.0 | 0.00 | 0.00 | 0.00 | 74 | 1009.6 |
| 20260506151107 | 82 | 227 | 3.0 | 5.0 | 0.00 | 0.00 | 0.00 | 74 | 1009.6 |
| 20260506150626 | 81 | 261 | 2.0 | 6.0 | 0.00 | 0.00 | 0.00 | 74 | 1009.4 |
| 20260506150043 | 81 | 203 | 1.0 | 5.0 | 0.00 | 0.00 | 0.00 | 74 | 1009.4 |
| 20260506145616 | 81 | 251 | 2.0 | 5.0 | 0.00 | 0.00 | 0.00 | 74 | 1009.4 |
| 20260506145030 | 81 | 184 | 2.0 | 4.0 | 0.00 | 0.00 | 0.00 | 74 | 1009.3 |
| 20260506144545 | 80 | 220 | 2.0 | 4.0 | 0.00 | 0.00 | 0.00 | 73 | 1009.3 |
| 20260506144133 | 80 | 230 | 2.0 | 4.0 | 0.00 | 0.00 | 0.00 | 72 | 1009.3 |
| 20260506143521 | 80 | 229 | 2.0 | 4.0 | 0.00 | 0.00 | 0.00 | 72 | 1009.2 |
| 20260506143100 | 79 | 338 | 1.0 | 4.0 | 0.00 | 0.00 | 0.00 | 72 | 1009.1 |
| 20260506142619 | 79 | 328 | 1.0 | 3.0 | 0.00 | 0.00 | 0.00 | 72 | 1009.1 |
| 20260506142011 | 79 | 348 | 1.0 | 3.0 | 0.00 | 0.00 | 0.00 | 73 | 1008.9 |
| 20260506141542 | 78 | 346 | 1.0 | 4.0 | 0.00 | 0.00 | 0.00 | 73 | 1008.9 |
| 20260506141108 | 78 | 351 | 0.0 | 4.0 | 0.00 | 0.00 | 0.00 | 73 | 1008.8 |
| 20260506140624 | 78 | 355 | 2.0 | 3.0 | 0.00 | 0.00 | 0.00 | 73 | 1008.7 |
| 20260506140039 | 78 | 43 | 0.0 | 3.0 | 0.00 | 0.00 | 0.00 | 75 | 1008.6 |
| 20260506135608 | 78 | 53 | 1.0 | 2.0 | 0.00 | 0.00 | 0.00 | 76 | 1008.6 |
| 20260506135134 | 78 | 58 | 0.0 | 2.0 | 0.00 | 0.00 | 0.00 | 77 | 1008.6 |
| 20260506134518 | 77 | 59 | 0.0 | 3.0 | 0.00 | 0.00 | 0.00 | 77 | 1008.5 |
| 20260506134057 | 77 | 59 | 0.0 | 3.0 | 0.00 | 0.00 | 0.00 | 77 | 1008.5 |
| 20260506133610 | 77 | 40 | 0.0 | 3.0 | 0.00 | 0.00 | 0.00 | 78 | 1008.5 |
| 20260506133017 | 77 | 41 | 1.0 | 3.0 | 0.00 | 0.00 | 0.00 | 78 | 1008.5 |
| 20260506132534 | 77 | 34 | 0.0 | 2.0 | 0.00 | 0.00 | 0.00 | 79 | 1008.5 |
| 20260506132058 | 76 | 30 | 0.0 | 0.0 | 0.00 | 0.00 | 0.00 | 79 | 1008.5 |
| 20260506131617 | 76 | 30 | 0.0 | 0.0 | 0.00 | 0.00 | 0.00 | 79 | 1008.5 |
| 20260506131002 | 76 | 30 | 0.0 | 0.0 | 0.00 | 0.00 | 0.00 | 79 | 1008.5 |
| 20260506130526 | 76 | 30 | 0.0 | 0.0 | 0.00 | 0.00 | 0.00 | 78 | 1008.4 |
| 20260506130047 | 76 | 31 | 0.0 | 2.0 | 0.00 | 0.00 | 0.00 | 78 | 1008.3 |
| 20260506125627 | 76 | 30 | 0.0 | 2.0 | 0.00 | 0.00 | 0.00 | 78 | 1008.2 |
| 20260506125017 | 76 | 30 | 0.0 | 2.0 | 0.00 | 0.00 | 0.00 | 78 | 1008.2 |
| 20260506124535 | 76 | 30 | 0.0 | 2.0 | 0.00 | 0.00 | 0.00 | 78 | 1008.1 |
| 20260506124106 | 76 | 30 | 0.0 | 1.0 | 0.00 | 0.00 | 0.00 | 78 | 1008.1 |
| 20260506123618 | 76 | 30 | 0.0 | 1.0 | 0.00 | 0.00 | 0.00 | 78 | 1008.1 |
| 20260506123015 | 76 | 30 | 0.0 | 1.0 | 0.00 | 0.00 | 0.00 | 78 | 1008.0 |
| 20260506122532 | 76 | 30 | 0.0 | 2.0 | 0.00 | 0.00 | 0.00 | 78 | 1007.9 |
| 20260506122059 | 76 | 30 | 0.0 | 2.0 | 0.00 | 0.00 | 0.00 | 78 | 1007.9 |
| 20260506121615 | 77 | 30 | 0.0 | 2.0 | 0.00 | 0.00 | 0.00 | 79 | 1007.9 |
| 20260506121008 | 77 | 15 | 1.0 | 2.0 | 0.00 | 0.00 | 0.00 | 79 | 1007.8 |
| 20260506120522 | 77 | 11 | 0.0 | 2.0 | 0.00 | 0.00 | 0.00 | 79 | 1007.8 |
| 20260506120058 | 77 | 11 | 0.0 | 3.0 | 0.00 | 0.00 | 0.00 | 79 | 1007.8 |
| 20260506115621 | 77 | 11 | 1.0 | 3.0 | 0.00 | 0.00 | 0.00 | 79 | 1007.7 |
| 20260506115010 | 77 | 90 | 0.0 | 0.0 | 0.00 | 0.00 | 0.00 | 78 | 1007.6 |
| 20260506114532 | 77 | 90 | 0.0 | 0.0 | 0.00 | 0.00 | 0.00 | 78 | 1007.5 |
| 20260506114108 | 77 | 90 | 0.0 | 0.0 | 0.00 | 0.00 | 0.00 | 78 | 1007.4 |
| 20260506113626 | 77 | 90 | 0.0 | 0.0 | 0.00 | 0.00 | 0.00 | 78 | 1007.4 |
| 20260506113026 | 78 | 90 | 0.0 | 0.0 | 0.00 | 0.00 | 0.00 | 78 | 1007.4 |
| 20260506112549 | 78 | 90 | 0.0 | 0.0 | 0.00 | 0.00 | 0.00 | 78 | 1007.5 |
| 20260506112133 | 78 | 90 | 0.0 | 0.0 | 0.00 | 0.00 | 0.00 | 78 | 1007.5 |
| 20260506111519 | 78 | 90 | 0.0 | 0.0 | 0.00 | 0.00 | 0.00 | 78 | 1007.4 |
| 20260506111033 | 78 | 90 | 0.0 | 0.0 | 0.00 | 0.00 | 0.00 | 77 | 1007.5 |
| 20260506110619 | 78 | 90 | 0.0 | 0.0 | 0.00 | 0.00 | 0.00 | 77 | 1007.5 |
| 20260506110008 | 78 | 90 | 0.0 | 3.0 | 0.00 | 0.00 | 0.00 | 77 | 1007.4 |
| 20260506105524 | 78 | 90 | 0.0 | 3.0 | 0.00 | 0.00 | 0.00 | 77 | 1007.5 |
| 20260506105103 | 78 | 84 | 0.0 | 2.0 | 0.00 | 0.00 | 0.00 | 77 | 1007.5 |
| 20260506104619 | 78 | 80 | 0.0 | 2.0 | 0.00 | 0.00 | 0.00 | 77 | 1007.4 |
| 20260506104016 | 78 | 80 | 0.0 | 0.0 | 0.00 | 0.00 | 0.00 | 77 | 1007.5 |
| 20260506103534 | 78 | 80 | 0.0 | 2.0 | 0.00 | 0.00 | 0.00 | 77 | 1007.5 |
| 20260506103052 | 78 | 80 | 0.0 | 3.0 | 0.00 | 0.00 | 0.00 | 77 | 1007.5 |
| 20260506102610 | 78 | 80 | 1.0 | 3.0 | 0.00 | 0.00 | 0.00 | 77 | 1007.4 |
| 20260506102014 | 79 | 75 | 0.0 | 2.0 | 0.00 | 0.00 | 0.00 | 77 | 1007.4 |
| 20260506101529 | 79 | 72 | 0.0 | 2.0 | 0.00 | 0.00 | 0.00 | 77 | 1007.4 |
| 20260506101105 | 79 | 72 | 0.0 | 3.0 | 0.00 | 0.00 | 0.00 | 77 | 1007.4 |
| 20260506100619 | 79 | 72 | 0.0 | 3.0 | 0.00 | 0.00 | 0.00 | 77 | 1007.5 |
| 20260506100002 | 79 | 71 | 0.0 | 3.0 | 0.00 | 0.00 | 0.00 | 77 | 1007.5 |
| 20260506095520 | 79 | 96 | 0.0 | 3.0 | 0.00 | 0.00 | 0.00 | 77 | 1007.5 |
| 20260506095106 | 79 | 96 | 0.0 | 3.0 | 0.00 | 0.00 | 0.00 | 77 | 1007.5 |
| 20260506094627 | 79 | 92 | 1.0 | 2.0 | 0.00 | 0.00 | 0.00 | 77 | 1007.6 |
| 20260506094002 | 80 | 92 | 0.0 | 2.0 | 0.00 | 0.00 | 0.00 | 77 | 1007.6 |
| 20260506093517 | 80 | 92 | 0.0 | 2.0 | 0.00 | 0.00 | 0.00 | 77 | 1007.7 |
| 20260506093053 | 80 | 92 | 0.0 | 2.0 | 0.00 | 0.00 | 0.00 | 77 | 1007.7 |
| 20260506092614 | 80 | 92 | 0.0 | 1.0 | 0.00 | 0.00 | 0.00 | 77 | 1007.6 |
| 20260506092135 | 80 | 92 | 0.0 | 1.0 | 0.00 | 0.00 | 0.00 | 77 | 1007.6 |
| 20260506091520 | 80 | 92 | 0.0 | 1.0 | 0.00 | 0.00 | 0.00 | 77 | 1007.6 |
| 20260506091051 | 80 | 92 | 0.0 | 1.0 | 0.00 | 0.00 | 0.00 | 77 | 1007.7 |
| 20260506090609 | 80 | 92 | 0.0 | 2.0 | 0.00 | 0.00 | 0.00 | 77 | 1007.8 |
| 20260506090002 | 80 | 92 | 0.0 | 3.0 | 0.00 | 0.00 | 0.00 | 77 | 1007.9 |
| 20260506085520 | 80 | 132 | 0.0 | 2.0 | 0.00 | 0.00 | 0.00 | 77 | 1008.0 |
| 20260506085050 | 80 | 132 | 0.0 | 2.0 | 0.00 | 0.00 | 0.00 | 78 | 1008.0 |
| 20260506084636 | 80 | 134 | 0.0 | 2.0 | 0.00 | 0.00 | 0.00 | 78 | 1008.0 |
| 20260506084019 | 80 | 134 | 1.0 | 3.0 | 0.00 | 0.00 | 0.00 | 78 | 1008.1 |
| 20260506083536 | 80 | 134 | 1.0 | 3.0 | 0.00 | 0.00 | 0.00 | 79 | 1008.2 |
| 20260506083125 | 80 | 110 | 1.0 | 3.0 | 0.00 | 0.00 | 0.00 | 79 | 1008.2 |
| 20260506082515 | 80 | 67 | 0.0 | 4.0 | 0.00 | 0.00 | 0.00 | 79 | 1008.2 |
| 20260506082057 | 80 | 59 | 1.0 | 4.0 | 0.00 | 0.00 | 0.00 | 79 | 1008.3 |
| 20260506081613 | 80 | 28 | 0.0 | 2.0 | 0.00 | 0.00 | 0.00 | 80 | 1008.3 |
| 20260506081022 | 80 | 28 | 0.0 | 2.0 | 0.00 | 0.00 | 0.00 | 80 | 1008.4 |
| 20260506080536 | 80 | 28 | 0.0 | 3.0 | 0.00 | 0.00 | 0.00 | 80 | 1008.4 |
| 20260506080130 | 81 | 28 | 1.0 | 3.0 | 0.00 | 0.00 | 0.00 | 80 | 1008.5 |
| 20260506073529 | 80 | 317 | 1.0 | 3.0 | 0.00 | 0.00 | 0.00 | 81 | 1008.5 |
| 20260506073057 | 80 | 306 | 0.0 | 3.0 | 0.00 | 0.00 | 0.00 | 81 | 1008.6 |
| 20260506072613 | 80 | 305 | 1.0 | 3.0 | 0.00 | 0.00 | 0.00 | 81 | 1008.7 |
| 20260506072002 | 80 | 309 | 2.0 | 3.0 | 0.00 | 0.00 | 0.00 | 82 | 1008.7 |
| 20260506071519 | 80 | 316 | 1.0 | 3.0 | 0.00 | 0.00 | 0.00 | 82 | 1008.7 |
| 20260506071055 | 80 | 275 | 1.0 | 3.0 | 0.00 | 0.00 | 0.00 | 82 | 1008.7 |
| 20260506070617 | 80 | 257 | 1.0 | 3.0 | 0.00 | 0.00 | 0.00 | 82 | 1008.7 |
| 20260506062009 | 81 | 223 | 1.0 | 3.0 | 0.00 | 0.00 | 0.00 | 81 | 1009.1 |
| 20260506061524 | 81 | 266 | 1.0 | 5.0 | 0.00 | 0.00 | 0.00 | 81 | 1009.2 |
| 20260506061055 | 81 | 242 | 2.0 | 5.0 | 0.00 | 0.00 | 0.00 | 82 | 1009.2 |
| 20260506060615 | 81 | 219 | 1.0 | 5.0 | 0.00 | 0.00 | 0.00 | 81 | 1009.2 |
| 20260506060143 | 81 | 219 | 2.0 | 5.0 | 0.00 | 0.00 | 0.00 | 81 | 1009.2 |
| 20260506051001 | 81 | 203 | 1.0 | 4.0 | 0.00 | 0.00 | 0.00 | 82 | 1009.2 |
| 20260506050521 | 81 | 184 | 1.0 | 4.0 | 0.00 | 0.00 | 0.00 | 82 | 1009.2 |
| 20260506045108 | 81 | 248 | 1.0 | 4.0 | 0.00 | 0.00 | 0.00 | 82 | 1009.2 |
| 20260506044622 | 81 | 195 | 3.0 | 4.0 | 0.00 | 0.00 | 0.00 | 82 | 1009.3 |
| 20260506044013 | 81 | 229 | 2.0 | 5.0 | 0.00 | 0.00 | 0.00 | 82 | 1009.2 |
| 20260506043533 | 81 | 188 | 1.0 | 4.0 | 0.00 | 0.00 | 0.00 | 82 | 1009.2 |
| 20260506043059 | 81 | 188 | 2.0 | 4.0 | 0.00 | 0.00 | 0.00 | 82 | 1009.1 |
| 20260506042615 | 81 | 173 | 0.0 | 4.0 | 0.00 | 0.00 | 0.00 | 82 | 1009.1 |
| 20260506042007 | 81 | 200 | 1.0 | 4.0 | 0.00 | 0.00 | 0.00 | 82 | 1009.1 |
| 20260506041530 | 81 | 191 | 1.0 | 5.0 | 0.00 | 0.00 | 0.00 | 82 | 1009.1 |
| 20260506041057 | 81 | 177 | 2.0 | 5.0 | 0.00 | 0.00 | 0.00 | 82 | 1009.2 |
| 20260506040619 | 81 | 181 | 1.0 | 6.0 | 0.00 | 0.00 | 0.00 | 82 | 1009.1 |
| 20260506040039 | 81 | 178 | 3.0 | 6.0 | 0.00 | 0.00 | 0.00 | 81 | 1009.2 |
| 20260506035531 | 81 | 198 | 1.0 | 7.0 | 0.00 | 0.00 | 0.00 | 81 | 1009.2 |
| 20260506035101 | 81 | 200 | 3.0 | 8.0 | 0.00 | 0.00 | 0.00 | 81 | 1009.2 |
| 20260506034623 | 81 | 198 | 1.0 | 4.0 | 0.00 | 0.00 | 0.00 | 81 | 1009.2 |
| 20260506034008 | 81 | 230 | 1.0 | 4.0 | 0.00 | 0.00 | 0.00 | 80 | 1009.0 |
| 20260506033529 | 81 | 231 | 1.0 | 5.0 | 0.00 | 0.00 | 0.00 | 80 | 1009.0 |
| 20260506033100 | 81 | 247 | 2.0 | 5.0 | 0.00 | 0.00 | 0.00 | 80 | 1008.9 |
| 20260506032613 | 81 | 203 | 0.0 | 4.0 | 0.00 | 0.00 | 0.00 | 80 | 1008.9 |
| 20260506032008 | 81 | 194 | 3.0 | 6.0 | 0.00 | 0.00 | 0.00 | 80 | 1008.9 |
| 20260506031525 | 81 | 180 | 2.0 | 4.0 | 0.00 | 0.00 | 0.00 | 80 | 1008.8 |
| 20260506031051 | 81 | 186 | 2.0 | 4.0 | 0.00 | 0.00 | 0.00 | 80 | 1008.8 |
| 20260506030608 | 81 | 202 | 1.0 | 4.0 | 0.00 | 0.00 | 0.00 | 80 | 1008.9 |
| 20260506030009 | 81 | 244 | 1.0 | 6.0 | 0.00 | 0.00 | 0.00 | 80 | 1008.8 |
| 20260506025529 | 81 | 180 | 1.0 | 6.0 | 0.00 | 0.00 | 0.00 | 80 | 1008.8 |
| 20260506025100 | 81 | 194 | 1.0 | 6.0 | 0.00 | 0.00 | 0.00 | 80 | 1008.8 |
| 20260506024615 | 81 | 196 | 3.0 | 6.0 | 0.00 | 0.00 | 0.00 | 80 | 1008.7 |
| 20260506024131 | 81 | 182 | 3.0 | 6.0 | 0.00 | 0.00 | 0.00 | 80 | 1008.6 |
| 20260506023513 | 81 | 177 | 3.0 | 6.0 | 0.00 | 0.00 | 0.00 | 80 | 1008.6 |
| 20260506023110 | 81 | 192 | 2.0 | 6.0 | 0.00 | 0.00 | 0.00 | 80 | 1008.4 |
| 20260506022622 | 81 | 208 | 1.0 | 5.0 | 0.00 | 0.00 | 0.00 | 80 | 1008.4 |
| 20260506022012 | 81 | 186 | 2.0 | 9.0 | 0.00 | 0.00 | 0.00 | 80 | 1008.4 |
| 20260506021543 | 81 | 242 | 2.0 | 9.0 | 0.00 | 0.00 | 0.00 | 80 | 1008.3 |
| 20260506021053 | 81 | 213 | 2.0 | 7.0 | 0.00 | 0.00 | 0.00 | 80 | 1008.2 |
| 20260506020614 | 81 | 209 | 3.0 | 7.0 | 0.00 | 0.00 | 0.00 | 80 | 1008.1 |
| 20260506020015 | 81 | 210 | 2.0 | 9.0 | 0.00 | 0.00 | 0.00 | 80 | 1008.1 |
| 20260506015536 | 81 | 232 | 3.0 | 9.0 | 0.00 | 0.00 | 0.00 | 80 | 1008.0 |
| 20260506015105 | 81 | 213 | 4.0 | 8.0 | 0.00 | 0.00 | 0.00 | 80 | 1008.0 |
| 20260506014624 | 81 | 207 | 2.0 | 7.0 | 0.00 | 0.00 | 0.00 | 80 | 1007.9 |
| 20260506014009 | 81 | 180 | 2.0 | 7.0 | 0.00 | 0.00 | 0.00 | 79 | 1007.7 |
| 20260506013528 | 81 | 232 | 2.0 | 7.0 | 0.00 | 0.00 | 0.00 | 79 | 1007.6 |
| 20260506013107 | 81 | 194 | 3.0 | 7.0 | 0.00 | 0.00 | 0.00 | 79 | 1007.6 |
| 20260506012617 | 81 | 257 | 2.0 | 5.0 | 0.00 | 0.00 | 0.00 | 79 | 1007.4 |
| 20260506012013 | 81 | 217 | 3.0 | 5.0 | 0.00 | 0.00 | 0.00 | 79 | 1007.3 |
| 20260506011533 | 81 | 232 | 2.0 | 7.0 | 0.00 | 0.00 | 0.00 | 79 | 1007.2 |
| 20260506011103 | 82 | 193 | 4.0 | 7.0 | 0.00 | 0.00 | 0.00 | 79 | 1007.1 |
| 20260506010619 | 82 | 236 | 2.0 | 6.0 | 0.00 | 0.00 | 0.00 | 79 | 1007.1 |
| 20260506010036 | 82 | 190 | 2.0 | 8.0 | 0.00 | 0.00 | 0.00 | 79 | 1007.0 |
| 20260506005540 | 82 | 223 | 3.0 | 10.0 | 0.00 | 0.00 | 0.00 | 79 | 1007.0 |
| 20260506005100 | 82 | 189 | 2.0 | 12.0 | 0.00 | 0.00 | 0.00 | 79 | 1007.0 |
| 20260506004626 | 82 | 189 | 2.0 | 12.0 | 0.00 | 0.00 | 0.00 | 79 | 1006.9 |
| 20260506004017 | 82 | 163 | 3.0 | 10.0 | 0.00 | 0.00 | 0.00 | 79 | 1006.9 |
| 20260506003535 | 82 | 189 | 5.0 | 12.0 | 0.00 | 0.00 | 0.00 | 79 | 1006.9 |
| 20260506003109 | 82 | 201 | 5.0 | 12.0 | 0.00 | 0.00 | 0.00 | 78 | 1006.8 |
| 20260506002624 | 82 | 197 | 6.0 | 10.0 | 0.00 | 0.00 | 0.00 | 78 | 1006.9 |
| 20260506002012 | 82 | 246 | 4.0 | 12.0 | 0.00 | 0.00 | 0.00 | 78 | 1006.9 |
| 20260506001536 | 82 | 185 | 5.0 | 11.0 | 0.00 | 0.00 | 0.00 | 78 | 1006.8 |
| 20260506001101 | 82 | 208 | 5.0 | 11.0 | 0.00 | 0.00 | 0.00 | 77 | 1006.8 |
| 20260506000615 | 82 | 163 | 6.0 | 9.0 | 0.00 | 0.00 | 0.00 | 77 | 1006.8 |
| 20260506000012 | 83 | 188 | 5.0 | 10.0 | 0.00 | 0.00 | 0.00 | 77 | 1006.8 |
| 20260505235535 | 83 | 221 | 4.0 | 9.0 | 0.00 | 0.00 | 0.00 | 77 | 1006.8 |
| 20260505235059 | 83 | 196 | 5.0 | 11.0 | 0.00 | 0.00 | 0.00 | 77 | 1006.8 |
| 20260505234617 | 83 | 202 | 5.0 | 15.0 | 0.00 | 0.00 | 0.00 | 76 | 1006.7 |
| 20260505234019 | 83 | 198 | 6.0 | 15.0 | 0.00 | 0.00 | 0.00 | 76 | 1006.7 |
| 20260505233530 | 83 | 256 | 5.0 | 10.0 | 0.00 | 0.00 | 0.00 | 76 | 1006.9 |
| 20260505233106 | 84 | 182 | 4.0 | 10.0 | 0.00 | 0.00 | 0.00 | 76 | 1006.8 |
| 20260505232626 | 84 | 264 | 5.0 | 12.0 | 0.00 | 0.00 | 0.00 | 75 | 1006.8 |
| 20260505232013 | 84 | 244 | 6.0 | 12.0 | 0.00 | 0.00 | 0.00 | 76 | 1006.8 |
| 20260505231544 | 84 | 289 | 5.0 | 11.0 | 0.00 | 0.00 | 0.00 | 75 | 1006.7 |
| 20260505231054 | 84 | 257 | 5.0 | 10.0 | 0.00 | 0.00 | 0.00 | 76 | 1006.8 |
| 20260505230612 | 84 | 271 | 4.0 | 11.0 | 0.00 | 0.00 | 0.00 | 76 | 1006.8 |
| 20260505230023 | 84 | 263 | 4.0 | 10.0 | 0.00 | 0.00 | 0.00 | 74 | 1006.8 |
| 20260505225532 | 85 | 197 | 7.0 | 12.0 | 0.00 | 0.00 | 0.00 | 74 | 1006.7 |
| 20260505225127 | 85 | 360 | 5.0 | 12.0 | 0.00 | 0.00 | 0.00 | 75 | 1006.7 |
| 20260505224515 | 85 | 254 | 5.0 | 9.0 | 0.00 | 0.00 | 0.00 | 74 | 1006.8 |
| 20260505224109 | 85 | 194 | 4.0 | 17.0 | 0.00 | 0.00 | 0.00 | 74 | 1006.8 |
| 20260505223624 | 85 | 235 | 6.0 | 17.0 | 0.00 | 0.00 | 0.00 | 74 | 1006.9 |
| 20260505223012 | 86 | 251 | 4.0 | 14.0 | 0.00 | 0.00 | 0.00 | 72 | 1006.9 |
| 20260505222529 | 86 | 188 | 3.0 | 14.0 | 0.00 | 0.00 | 0.00 | 72 | 1007.0 |
| 20260505222051 | 86 | 227 | 5.0 | 10.0 | 0.00 | 0.00 | 0.00 | 71 | 1006.9 |